Total_Precipitation_Accumulation
0.28 0.54 1.00 1.27 1.73 2.16 1.90 1.51 0.95 0.71 0.71 0.77 0.67 0.64 0.83 1.06 1.55 2.77 2.90 2.63 1.76 1.66 2.00 2.15 2.08 1.80 1.68 1.67 1.81 1.74 1.68 1.74 1.90 1.96 2.05 2.15 2.23 2.22 2.19 2.25 2.53 2.83 3.07 3.20 3.21 3.19 3.19 3.14 3.08
0.46 0.83 1.03 1.25 1.91 2.15 1.84 1.39 0.85 0.70 0.59 0.62 0.65 0.58 0.79 0.96 1.10 1.84 2.36 2.12 1.36 1.23 1.51 1.62 1.76 1.68 1.57 1.45 1.55 1.62 1.54 1.61 1.79 2.09 2.32 2.39 2.52 2.51 2.49 2.56 2.72 2.92 2.94 3.06 3.11 3.07 2.93 2.93 2.90
0.51 0.75 0.99 1.26 1.48 1.53 1.31 0.96 0.58 0.49 0.41 0.44 0.56 0.50 0.77 1.26 1.23 1.62 1.88 1.62 1.23 1.14 1.26 1.50 1.46 1.38 1.45 1.42 1.49 1.59 1.65 1.66 1.67 1.96 2.29 2.52 2.74 2.79 2.85 2.93 3.04 3.10 2.94 2.85 2.91 2.91 2.66 2.70 2.73
0.66 0.84 0.83 0.85 0.88 0.82 0.66 0.59 0.42 0.40 0.38 0.36 0.46 0.66 1.08 1.21 1.17 1.36 1.35 1.22 0.98 0.97 1.03 1.19 1.41 1.38 1.41 1.42 1.43 1.44 1.58 1.73 1.84 2.08 2.36 2.57 2.79 2.96 3.13 3.14 3.21 3.17 2.96 2.86 2.82 2.76 2.62 2.68 2.76
0.78 0.84 0.78 0.57 0.50 0.60 0.52 0.44 0.35 0.39 0.36 0.40 0.49 0.91 1.52 1.46 1.06 1.04 1.08 1.00 0.86 0.81 0.97 1.13 1.35 1.41 1.43 1.37 1.41 1.45 1.53 1.78 1.98 2.05 2.17 2.34 2.54 2.89 3.01 3.00 3.04 2.91 2.77 2.70 2.72 2.73 2.62 2.59 2.73
0.61 0.68 0.60 0.38 0.36 0.46 0.42 0.34 0.33 0.31 0.33 0.45 0.62 0.96 1.56 1.56 1.28 1.21 1.24 1.08 1.01 0.84 0.82 1.05 1.29 1.41 1.41 1.36 1.44 1.54 1.71 1.92 2.08 2.04 2.05 2.15 2.38 2.64 2.66 2.65 2.65 2.60 2.64 2.64 2.70 2.71 2.55 2.44 2.71
0.57 0.51 0.36 0.24 0.26 0.34 0.35 0.31 0.33 0.30 0.37 0.55 0.72 1.10 1.52 1.74 1.51 1.33 1.44 1.51 1.29 1.05 0.96 1.05 1.14 1.19 1.28 1.40 1.51 1.75 1.95 2.08 2.09 2.00 2.01 2.20 2.33 2.38 2.31 2.36 2.40 2.44 2.47 2.53 2.58 2.51 2.40 2.37 2.56
0.31 0.32 0.24 0.16 0.17 0.27 0.26 0.26 0.26 0.30 0.42 0.50 0.68 1.15 1.58 1.55 1.49 1.47 1.64 1.80 1.74 1.39 1.30 1.20 1.20 1.22 1.17 1.36 1.67 1.90 2.05 2.18 2.20 2.18 2.26 2.42 2.49 2.41 2.44 2.37 2.42 2.48 2.57 2.65 2.77 2.74 2.56 2.49 2.51
0.20 0.22 0.18 0.13 0.12 0.18 0.17 0.22 0.27 0.23 0.27 0.44 0.65 0.99 1.13 1.08 1.23 1.47 1.71 1.94 2.15 1.94 1.67 1.50 1.32 1.34 1.44 1.47 1.62 2.04 2.26 2.32 2.35 2.59 2.79 2.91 2.81 2.58 2.73 2.58 2.86 2.93 2.97 3.01 3.14 3.07 2.80 2.66 2.57
0.15 0.13 0.09 0.07 0.07 0.07 0.12 0.19 0.25 0.23 0.41 0.68 0.82 0.95 0.89 1.05 1.17 1.44 1.67 1.83 1.99 2.18 1.78 1.65 1.45 1.41 1.48 1.63 2.03 2.35 2.22 2.38 2.64 2.94 3.11 3.34 3.26 3.18 2.73 3.00 3.38 3.67 3.95 3.91 3.87 3.69 3.28 2.74 2.53
0.11 0.09 0.05 0.04 0.03 0.04 0.11 0.12 0.19 0.24 0.58 1.04 1.19 1.22 1.15 1.11 1.25 1.54 1.85 1.96 1.86 1.98 1.81 1.78 1.80 1.86 1.74 1.87 2.15 2.41 2.46 2.66 2.82 2.91 3.11 3.32 3.05 2.96 3.07 3.40 3.73 4.02 4.21 4.11 4.20 4.22 3.57 3.10 2.97
0.07 0.04 0.04 0.03 0.03 0.05 0.09 0.11 0.15 0.26 0.57 0.84 1.12 1.11 1.27 1.25 1.36 1.64 2.02 2.26 2.29 2.46 2.25 2.14 2.20 2.21 2.20 2.14 2.29 2.41 2.45 2.63 2.80 2.94 2.92 3.06 3.23 3.30 3.45 3.84 3.82 3.97 4.12 4.48 4.23 4.44 4.06 3.57 3.24
0.04 0.04 0.04 0.04 0.04 0.05 0.09 0.18 0.18 0.29 0.41 0.60 0.87 0.90 0.99 1.30 1.69 2.11 2.53 2.59 2.76 3.03 3.06 2.82 2.55 2.43 2.50 2.67 2.63 2.45 2.59 2.76 2.88 3.09 3.07 3.05 3.36 3.54 3.66 3.80 3.98 3.69 3.74 4.20 4.42 4.21 4.32 4.27 3.92
0.04 0.04 0.05 0.06 0.06 0.08 0.12 0.24 0.31 0.41 0.49 0.54 0.82 1.07 1.13 1.50 1.85 2.44 3.14 3.12 2.95 3.21 3.33 3.07 2.90 2.82 2.89 3.17 3.24 3.06 2.89 3.17 3.20 3.18 3.13 3.21 3.45 3.85 4.05 4.00 4.10 3.85 3.62 3.84 4.10 4.12 4.76 4.58 4.39
0.06 0.07 0.08 0.10 0.12 0.15 0.21 0.44 0.56 0.56 0.52 0.61 0.92 1.25 1.52 1.68 2.01 2.39 2.84 3.25 3.42 3.50 3.41 3.35 3.31 3.28 3.46 3.58 3.51 3.29 3.23 3.14 3.23 3.30 3.37 3.36 3.35 3.80 4.06 4.26 4.22 3.96 3.71 3.94 4.12 4.33 4.61 4.37 4.21
0.07 0.11 0.17 0.17 0.18 0.19 0.29 0.71 0.68 0.56 0.56 0.88 1.08 1.43 1.78 1.85 2.12 2.55 2.95 3.53 3.82 3.81 3.78 3.78 3.59 3.72 3.93 4.03 3.90 3.73 3.61 3.44 3.25 3.19 3.39 3.45 3.55 3.81 4.05 3.99 3.89 3.99 3.92 4.16 4.42 4.54 4.63 4.54 4.35
0.13 0.17 0.21 0.21 0.21 0.19 0.25 0.51 0.64 0.59 0.78 1.07 1.32 1.64 1.95 2.23 2.70 3.21 3.48 3.60 3.96 4.28 4.43 4.48 4.42 4.33 4.34 4.35 4.24 4.28 4.28 4.06 3.71 3.56 3.59 3.67 3.59 3.60 3.83 3.84 3.96 4.02 4.01 4.08 3.74 4.35 4.40 4.52 4.39
0.16 0.16 0.20 0.24 0.20 0.21 0.31 0.46 0.57 0.65 0.87 1.31 1.71 1.95 2.22 2.64 3.16 3.52 3.78 4.13 4.26 4.52 5.04 5.06 4.93 4.96 5.05 5.03 4.74 4.76 4.55 4.29 4.13 4.06 4.17 3.93 3.71 3.54 3.77 3.78 3.94 3.95 4.04 4.11 4.08 4.38 4.35 4.19 4.17
0.14 0.16 0.20 0.24 0.21 0.24 0.41 0.61 0.64 0.82 1.11 1.44 1.82 2.07 2.41 2.76 3.13 3.54 3.62 3.88 4.19 4.80 5.29 5.56 5.66 5.60 5.37 5.08 4.73 4.55 4.55 4.54 4.28 4.03 3.86 3.72 3.58 3.62 4.00 3.89 4.26 4.15 3.94 3.91 4.00 4.28 4.21 3.92 3.97
0.13 0.17 0.21 0.24 0.21 0.23 0.43 0.64 0.72 1.06 1.39 1.45 1.63 1.79 1.98 2.42 2.76 3.10 3.28 3.37 3.79 4.40 4.85 5.06 4.89 4.91 4.77 4.56 4.50 4.48 4.74 4.46 4.17 4.00 3.83 3.53 3.49 3.58 3.59 3.99 3.96 4.00 4.14 4.05 3.99 4.20 4.05 3.64 3.80
0.12 0.12 0.16 0.24 0.24 0.31 0.47 0.86 1.02 1.22 1.36 1.39 1.48 1.63 1.75 2.03 2.35 2.69 2.85 2.98 3.22 3.35 3.65 3.86 4.08 4.10 4.04 4.04 4.02 4.12 4.36 4.21 4.07 3.91 3.80 3.41 3.24 3.23 3.38 3.55 3.75 4.10 3.96 3.97 4.03 3.94 3.88 3.65 3.62
0.12 0.11 0.11 0.17 0.27 0.43 0.58 1.18 1.38 1.32 1.35 1.48 1.47 1.43 1.68 1.97 1.98 2.10 2.37 2.53 2.82 3.00 3.21 3.30 3.40 3.56 3.64 3.76 3.68 3.55 3.45 3.47 3.47 3.53 3.48 3.46 3.30 3.18 3.22 3.35 3.55 3.72 3.50 3.56 3.24 3.36 3.66 3.83 3.58
0.08 0.09 0.11 0.20 0.32 0.45 0.54 0.90 1.29 1.60 1.66 1.45 1.39 1.27 1.48 1.62 1.53 1.52 1.71 1.87 2.15 2.41 2.65 2.81 2.95 3.10 3.36 3.49 3.43 3.38 3.18 3.18 3.27 3.31 3.33 3.33 3.27 3.20 3.15 3.16 3.24 3.26 3.10 3.16 3.09 3.32 3.33 3.35 3.37
0.07 0.11 0.20 0.36 0.54 0.81 0.66 0.81 1.25 1.55 1.80 1.54 1.31 1.23 1.34 1.31 1.27 1.39 1.55 1.66 1.83 2.15 2.35 2.47 2.62 2.72 2.94 3.11 3.21 3.29 3.24 3.15 3.12 3.13 3.13 3.12 3.13 3.04 2.95 2.87 2.92 2.93 2.92 2.97 3.03 3.18 3.07 3.12 3.28
0.09 0.19 0.61 1.01 1.28 1.29 0.83 0.86 1.23 1.21 1.23 1.26 1.21 1.25 1.28 1.21 1.16 1.16 1.26 1.41 1.60 1.86 2.06 2.14 2.26 2.38 2.45 2.57 2.78 2.96 2.94 2.95 2.82 2.75 2.80 2.80 2.62 2.54 2.65 2.55 2.68 2.70 2.76 2.80 2.92 3.00 2.97 3.11 3.27
0.13 0.21 0.68 1.07 1.10 1.10 0.93 1.19 1.53 1.23 1.15 1.07 1.14 1.23 1.22 1.08 1.02 1.04 1.14 1.20 1.30 1.50 1.75 1.84 1.96 2.09 2.25 2.31 2.45 2.60 2.62 2.61 2.45 2.53 2.55 2.47 2.24 2.18 2.39 2.51 2.53 2.52 2.54 2.64 2.92 2.74 2.80 3.02 3.06
0.20 0.22 0.31 0.58 0.67 0.85 1.04 1.34 1.55 1.21 1.15 1.26 1.36 1.33 1.27 1.02 0.88 0.90 0.91 0.96 1.00 1.11 1.30 1.45 1.70 1.86 1.97 2.08 2.22 2.26 2.23 2.33 2.30 2.39 2.52 2.37 2.31 2.17 2.23 2.27 2.38 2.49 2.63 2.81 2.99 2.82 2.92 3.17 3.06
0.18 0.19 0.26 0.51 0.76 0.93 1.03 1.41 1.71 1.62 1.45 1.37 1.43 1.28 1.01 0.84 0.73 0.70 0.70 0.71 0.80 0.93 1.08 1.27 1.45 1.52 1.64 1.87 2.02 1.96 2.18 2.27 2.27 2.28 2.20 2.18 2.23 2.21 2.09 2.05 2.14 2.22 2.35 2.55 2.71 2.61 2.75 3.00 3.00
0.21 0.24 0.33 0.48 0.55 0.79 1.17 1.41 1.36 1.36 1.26 1.29 1.27 1.10 0.88 0.74 0.66 0.67 0.68 0.70 0.78 0.86 1.03 1.23 1.47 1.59 1.60 1.71 1.88 1.98 2.06 2.18 2.20 2.11 2.02 2.06 2.13 2.16 2.08 2.06 2.08 2.09 2.05 2.13 2.29 2.28 2.53 2.59 2.64
0.19 0.22 0.32 0.48 0.47 0.52 0.84 1.12 0.78 0.81 0.81 0.89 0.95 0.82 0.76 0.74 0.69 0.74 0.80 0.80 0.83 0.93 1.09 1.28 1.45 1.63 1.71 1.87 2.13 2.26 2.15 2.12 2.14 2.08 1.96 1.87 1.83 1.92 2.03 2.08 2.01 1.91 1.97 2.12 2.11 2.15 2.40 2.50 2.47